TimeEET,TemperatureF,Dew PointF,Humidity,Sea Level PressureIn,VisibilityMPH,Wind Direction,Wind SpeedMPH,Gust SpeedMPH,PrecipitationIn,Events,Conditions,WindDirDegrees,DateUTC
12:00 AM,69.8,30.2,23,29.95,-9999.0,North,10.4,-,N/A,,Clear,350,2013-03-01 22:00:00
1:00 AM,68.0,21.2,17,29.92,-9999.0,North,6.9,-,N/A,,Clear,350,2013-03-01 23:00:00
2:00 AM,65,28,15,29.93,6,North,9.2,,,,,0,2013-03-02 00:00:00
2:00 AM,64.4,28.4,26,29.92,-9999.0,North,9.2,-,N/A,,Clear,360,2013-03-02 00:00:00
3:00 AM,64.4,28.4,26,29.92,-9999.0,North,8.1,-,N/A,,Clear,10,2013-03-02 01:00:00
4:00 AM,62.6,28.4,27,29.92,-9999.0,North,6.9,-,N/A,,Clear,360,2013-03-02 02:00:00
5:00 AM,62.6,30.2,30,29.92,-9999.0,North,6.9,-,N/A,,Clear,10,2013-03-02 03:00:00
6:00 AM,62.6,30.2,30,29.95,-9999.0,North,8.1,-,N/A,,Clear,360,2013-03-02 04:00:00
7:00 AM,62.6,30.2,30,29.95,-9999.0,North,5.8,-,N/A,,Clear,10,2013-03-02 05:00:00
8:00 AM,69,36,19,29.95,6,Calm,Calm,,,,,,2013-03-02 06:00:00
8:00 AM,69.8,35.6,28,29.95,-9999.0,Calm,Calm,-,N/A,,Clear,0,2013-03-02 06:00:00
9:00 AM,75.2,37.4,25,29.98,-9999.0,Calm,Calm,-,N/A,,Clear,0,2013-03-02 07:00:00
10:00 AM,78.8,37.4,23,29.95,-9999.0,East,5.8,-,N/A,,Clear,90,2013-03-02 08:00:00
11:00 AM,86.0,35.6,17,29.95,-9999.0,ESE,4.6,-,N/A,,Clear,120,2013-03-02 09:00:00
12:00 PM,-9999,-9999,N/A,29.92,-9999.0,North,-9999.0,-,N/A,,Clear,0,2013-03-02 10:00:00
1:00 PM,89.6,33.8,14,29.92,-9999.0,SSE,5.8,-,N/A,,Clear,150,2013-03-02 11:00:00
2:00 PM,92,32,6,29.86,6,Calm,Calm,,,,,,2013-03-02 12:00:00
2:00 PM,91.4,32.0,12,29.89,-9999.0,Calm,Calm,-,N/A,,Clear,0,2013-03-02 12:00:00
3:00 PM,93.2,30.2,11,29.89,-9999.0,North,4.6,-,N/A,,Clear,10,2013-03-02 13:00:00
4:00 PM,95.0,30.2,10,29.86,-9999.0,Calm,Calm,-,N/A,,Clear,0,2013-03-02 14:00:00
5:00 PM,91.4,32.0,12,29.89,-9999.0,Calm,Calm,-,N/A,,Clear,0,2013-03-02 15:00:00
6:00 PM,89.6,30.2,12,29.89,-9999.0,Calm,Calm,-,N/A,,Clear,0,2013-03-02 16:00:00
7:00 PM,86.0,28.4,12,29.92,-9999.0,Calm,Calm,-,N/A,,Clear,0,2013-03-02 17:00:00
8:00 PM,83,33,9,29.91,6,NNW,4.6,,,,,340,2013-03-02 18:00:00
8:00 PM,82.4,33.8,17,29.95,-9999.0,NNW,4.6,-,N/A,,Clear,340,2013-03-02 18:00:00
9:00 PM,78.8,32.0,18,29.95,-9999.0,Calm,Calm,-,N/A,,Clear,0,2013-03-02 19:00:00
10:00 PM,77.0,28.4,17,29.95,-9999.0,West,4.6,-,N/A,,Clear,280,2013-03-02 20:00:00
11:00 PM,75.2,28.4,18,29.95,-9999.0,West,4.6,-,N/A,,Clear,280,2013-03-02 21:00:00